Date,TemperatureHighF,TemperatureAvgF,TemperatureLowF,DewpointHighF,DewpointAvgF,DewpointLowF,HumidityHigh,HumidityAvg,HumidityLow,PressureMaxIn,PressureMinIn,WindSpeedMaxMPH,WindSpeedAvgMPH,GustSpeedMaxMPH,PrecipitationSumIn
2013-3-1,39.4,35.8,32.4,30.4,28.7,25.9,88,75,65,30.19,30.11,4,1,7,0.00
2013-3-2,37.4,32.4,26.2,31.0,26.6,22.4,94,79,62,30.28,30.17,4,1,7,0.02
2013-3-3,51.6,35.1,20.8,29.5,22.0,10.7,96,65,19,30.27,30.09,5,0,8,0.00
2013-3-4,71.6,54.9,34.9,49.0,28.8,14.0,75,40,11,30.09,29.75,5,2,14,0.00
2013-3-5,63.9,50.1,36.3,58.6,38.6,20.1,99,67,32,30.21,29.75,10,4,15,0.27
2013-3-6,50.9,38.3,30.7,28.1,25.0,21.6,89,60,37,30.40,30.21,5,1,7,0.00
2013-3-7,60.3,41.3,28.9,32.8,29.0,25.2,93,66,27,30.42,30.30,4,1,8,0.00
2013-3-8,68.2,47.7,32.5,35.7,27.8,7.8,89,54,10,30.42,30.19,6,1,8,0.00
2013-3-9,75.2,60.0,48.6,38.0,29.3,11.3,62,34,10,30.19,29.93,4,1,8,0.00
2013-3-10,67.6,58.7,50.0,58.5,50.1,34.0,99,76,34,29.95,29.75,5,2,12,0.57
2013-3-11,49.6,42.4,31.8,46.8,35.9,29.3,94,78,49,30.07,29.85,4,2,9,0.02
2013-3-12,61.3,41.6,26.8,37.3,27.3,13.4,99,67,16,30.25,30.06,4,1,8,0.00
2013-3-13,55.8,42.4,30.9,33.7,24.9,16.8,85,53,24,30.45,30.25,6,1,10,0.01
2013-3-14,66.4,45.1,26.8,35.4,25.1,5.8,92,55,10,30.46,30.18,4,1,10,0.00
2013-3-15,79.7,61.9,42.8,47.1,41.6,35.4,76,50,29,30.18,29.88,6,2,11,0.01
2013-3-16,79.9,67.9,56.7,54.0,50.0,41.8,85,55,35,29.91,29.81,5,2,10,0.00
2013-3-17,67.5,56.0,50.0,54.9,49.5,44.4,91,79,62,29.94,29.67,8,1,12,0.00
2013-3-18,68.2,51.4,39.6,60.5,49.2,39.3,99,93,65,30.07,29.66,3,0,5,0.55
2013-3-19,62.8,45.5,32.2,42.0,29.9,3.6,99,64,10,30.23,30.07,4,0,5,0.02
2013-3-20,59.0,44.9,32.0,36.2,24.4,0.1,89,50,13,30.26,30.10,7,2,12,0.00
2013-3-21,46.8,37.5,25.9,31.7,15.7,3.3,89,44,18,30.16,29.98,7,1,8,0.02
2013-3-22,45.7,41.4,33.1,45.4,40.6,30.5,99,97,87,30.04,29.90,6,2,8,0.18
2013-3-23,55.8,49.6,45.5,52.2,47.8,45.2,99,94,80,29.94,29.70,7,2,9,0.14
2013-3-24,50.7,45.4,37.0,49.7,40.1,26.0,99,83,59,29.98,29.54,8,3,14,0.11
2013-3-25,43.3,37.0,33.4,26.6,23.1,20.3,68,57,43,30.28,29.98,6,4,12,0.01
2013-3-26,53.1,38.4,29.1,29.0,24.4,16.6,84,59,24,30.40,30.27,7,2,13,0.00
2013-3-27,61.7,40.4,24.8,34.6,27.2,20.9,96,66,21,30.44,30.31,4,1,8,0.01
2013-3-28,73.6,51.3,32.2,39.6,30.8,15.3,97,57,11,30.37,30.21,3,0,6,0.00
2013-3-29,63.7,51.9,42.4,54.4,45.6,31.0,99,82,30,30.29,30.17,4,0,7,0.11
2013-3-30,57.7,53.1,47.7,57.5,52.8,47.4,99,99,99,30.21,29.94,3,1,5,0.31
2013-3-31,66.2,56.6,44.8,59.4,55.0,44.5,99,95,71,29.98,29.88,3,0,5,0.03